| time (UTC) | temp F | wind direction | speed knots | gust knots | rain 1hr in | rain 24hr in | rain mn in | humidity % | barometer mb |
| 20260506183204 | 64 | 210 | 1.7 | 9.6 | 0.01 | 0.05 | 0.05 | 83 | 1007.7 |
| 20260506182147 | 64 | 212 | 2.6 | 8.7 | 0.01 | 0.05 | 0.05 | 83 | 1007.9 |
| 20260506181130 | 64 | 210 | 1.7 | 9.6 | 0.01 | 0.05 | 0.05 | 83 | 1008.0 |
| 20260506180113 | 65 | 159 | 2.6 | 8.7 | 0.01 | 0.05 | 0.05 | 82 | 1008.0 |
| 20260506175306 | 65 | 192 | 2.6 | 0.0 | 0.00 | 0.04 | 0.04 | 81 | 1008.1 |
| 20260506174030 | 66 | 194 | 2.6 | 7.8 | 0.00 | 0.04 | 0.04 | 81 | 1008.1 |
| 20260506173012 | 66 | 192 | 1.7 | 0.0 | 0.01 | 0.04 | 0.04 | 83 | 1008.0 |
| 20260506171953 | 66 | 190 | 0.9 | 0.0 | 0.02 | 0.04 | 0.04 | 84 | 1008.0 |
| 20260506170937 | 65 | 190 | 1.7 | 0.0 | 0.02 | 0.04 | 0.04 | 85 | 1008.2 |
| 20260506165915 | 65 | 216 | 0.9 | 0.0 | 0.02 | 0.04 | 0.04 | 85 | 1008.5 |
| 20260506164855 | 64 | 216 | 0.9 | 0.0 | 0.03 | 0.04 | 0.04 | 84 | 1008.6 |
| 20260506163839 | 64 | 218 | 0.9 | 0.0 | 0.04 | 0.04 | 0.04 | 84 | 1009.0 |
| 20260506162756 | 64 | 216 | 0.9 | 0.0 | 0.03 | 0.03 | 0.03 | 82 | 1009.3 |
| 20260506161956 | 64 | 216 | 0.9 | 0.0 | 0.02 | 0.02 | 0.02 | 81 | 1009.4 |
| 20260506160723 | 65 | 220 | 0.9 | 6.1 | 0.02 | 0.02 | 0.02 | 79 | 1009.6 |
| 20260506155706 | 66 | 220 | 1.7 | 7.8 | 0.02 | 0.02 | 0.02 | 77 | 1009.6 |
| 20260506154649 | 67 | 220 | 1.7 | 8.7 | 0.01 | 0.01 | 0.01 | 75 | 1009.6 |
| 20260506153633 | 68 | 216 | 1.7 | 9.6 | 0.00 | 0.00 | 0.00 | 72 | 1009.4 |
| 20260506152616 | 68 | 218 | 1.7 | 8.7 | 0.00 | 0.00 | 0.00 | 71 | 1009.5 |
| 20260506151559 | 68 | 220 | 1.7 | 9.6 | 0.00 | 0.00 | 0.00 | 71 | 1009.5 |
| 20260506150541 | 68 | 220 | 2.6 | 9.6 | 0.00 | 0.00 | 0.00 | 69 | 1009.5 |
| 20260506145524 | 68 | 208 | 2.6 | 0.0 | 0.00 | 0.00 | 0.00 | 68 | 1009.7 |
| 20260506144508 | 69 | 198 | 2.6 | 0.0 | 0.00 | 0.00 | 0.00 | 67 | 1009.7 |
| 20260506143450 | 69 | 174 | 2.6 | 0.0 | 0.00 | 0.00 | 0.00 | 66 | 1009.7 |
| 20260506142432 | 69 | 182 | 2.6 | 0.0 | 0.00 | 0.00 | 0.00 | 67 | 1009.6 |
| 20260506141415 | 69 | 233 | 2.6 | 0.0 | 0.00 | 0.00 | 0.00 | 67 | 1009.6 |
| 20260506140356 | 68 | 178 | 2.6 | 10.4 | 0.00 | 0.00 | 0.00 | 68 | 1009.5 |
| 20260506135338 | 68 | 210 | 2.6 | 9.6 | 0.00 | 0.00 | 0.00 | 68 | 1009.6 |
| 20260506134321 | 68 | 183 | 3.5 | 9.6 | 0.00 | 0.00 | 0.00 | 68 | 1009.6 |
| 20260506133212 | 68 | 189 | 2.6 | 0.0 | 0.00 | 0.00 | 0.00 | 68 | 1009.7 |
| 20260506132155 | 68 | 203 | 3.5 | 0.0 | 0.00 | 0.00 | 0.00 | 68 | 1009.8 |
| 20260506131138 | 68 | 210 | 2.6 | 10.4 | 0.00 | 0.00 | 0.00 | 69 | 1009.8 |
| 20260506130120 | 67 | 167 | 2.6 | 9.6 | 0.00 | 0.00 | 0.00 | 70 | 1009.7 |
| 20260506125037 | 67 | 270 | 2.6 | 7.0 | 0.00 | 0.00 | 0.00 | 70 | 1009.7 |
| 20260506124013 | 67 | 200 | 2.6 | 9.6 | 0.00 | 0.00 | 0.00 | 72 | 1009.6 |
| 20260506122957 | 66 | 200 | 2.6 | 9.6 | 0.00 | 0.00 | 0.00 | 72 | 1009.7 |
| 20260506122153 | 66 | 200 | 2.6 | 9.6 | 0.00 | 0.00 | 0.00 | 73 | 1009.8 |
| 20260506120923 | 66 | 200 | 1.7 | 8.7 | 0.00 | 0.00 | 0.00 | 73 | 1009.8 |
| 20260506115905 | 65 | 248 | 1.7 | 7.0 | 0.00 | 0.00 | 0.00 | 73 | 1009.9 |
| 20260506115102 | 65 | 248 | 2.6 | 7.0 | 0.00 | 0.00 | 0.00 | 73 | 1009.9 |
| 20260506113833 | 65 | 248 | 2.6 | 7.0 | 0.00 | 0.00 | 0.00 | 74 | 1010.0 |
| 20260506113029 | 65 | 198 | 2.6 | 9.6 | 0.00 | 0.00 | 0.00 | 76 | 1009.9 |
| 20260506111756 | 64 | 200 | 2.6 | 9.6 | 0.00 | 0.00 | 0.00 | 76 | 1009.9 |
| 20260506110740 | 64 | 200 | 1.7 | 8.7 | 0.00 | 0.00 | 0.00 | 77 | 1009.8 |
| 20260506105723 | 63 | 200 | 1.7 | 7.8 | 0.00 | 0.00 | 0.00 | 77 | 1009.8 |
| 20260506104706 | 63 | 200 | 1.7 | 7.8 | 0.00 | 0.00 | 0.00 | 78 | 1009.8 |
| 20260506103649 | 63 | 198 | 1.7 | 7.0 | 0.00 | 0.00 | 0.00 | 78 | 1009.7 |
| 20260506102632 | 63 | 200 | 1.7 | 0.0 | 0.00 | 0.00 | 0.00 | 78 | 1009.7 |
| 20260506101614 | 63 | 198 | 1.7 | 0.0 | 0.00 | 0.00 | 0.00 | 79 | 1009.7 |
| 20260506100552 | 63 | 198 | 1.7 | 0.0 | 0.00 | 0.00 | 0.00 | 78 | 1009.6 |
| 20260506095722 | 63 | 190 | 1.7 | 0.0 | 0.00 | 0.00 | 0.00 | 78 | 1009.6 |
| 20260506094441 | 63 | 190 | 1.7 | 0.0 | 0.00 | 0.00 | 0.00 | 78 | 1009.5 |
| 20260506093424 | 63 | 190 | 1.7 | 0.0 | 0.00 | 0.00 | 0.00 | 79 | 1009.5 |
| 20260506092407 | 63 | 190 | 1.7 | 0.0 | 0.00 | 0.00 | 0.00 | 78 | 1009.6 |
| 20260506091351 | 63 | 190 | 1.7 | 0.0 | 0.00 | 0.00 | 0.00 | 78 | 1009.7 |
| 20260506090307 | 63 | 190 | 1.7 | 0.0 | 0.00 | 0.00 | 0.00 | 78 | 1009.7 |
| 20260506085506 | 63 | 188 | 1.7 | 0.0 | 0.00 | 0.00 | 0.00 | 78 | 1009.8 |
| 20260506084234 | 64 | 188 | 1.7 | 0.0 | 0.00 | 0.00 | 0.00 | 78 | 1009.8 |
| 20260506083213 | 64 | 190 | 1.7 | 0.0 | 0.00 | 0.00 | 0.00 | 78 | 1009.8 |
| 20260506082157 | 64 | 190 | 1.7 | 7.0 | 0.00 | 0.00 | 0.00 | 77 | 1009.9 |
| 20260506081140 | 64 | 190 | 1.7 | 0.0 | 0.00 | 0.00 | 0.00 | 77 | 1009.9 |
| 20260506080118 | 64 | 169 | 1.7 | 0.0 | 0.00 | 0.00 | 0.00 | 77 | 1009.8 |
| 20260506073021 | 65 | 188 | 1.7 | 0.0 | 0.00 | 0.00 | 0.00 | 76 | 1009.9 |
| 20260506072220 | 65 | 190 | 1.7 | 0.0 | 0.00 | 0.00 | 0.00 | 75 | 1009.9 |
| 20260506070947 | 65 | 190 | 1.7 | 0.0 | 0.00 | 0.00 | 0.00 | 75 | 1010.0 |
| 20260506061822 | 66 | 198 | 0.9 | 7.0 | 0.00 | 0.00 | 0.00 | 72 | 1010.2 |
| 20260506060954 | 66 | 198 | 1.7 | 7.0 | 0.00 | 0.00 | 0.00 | 71 | 1010.2 |
| 20260506050552 | 67 | 190 | 1.7 | 7.0 | 0.00 | 0.00 | 0.00 | 69 | 1010.7 |
| 20260506044515 | 67 | 192 | 0.9 | 7.8 | 0.00 | 0.00 | 0.00 | 67 | 1010.7 |
| 20260506043458 | 67 | 190 | 0.9 | 7.0 | 0.00 | 0.00 | 0.00 | 67 | 1010.7 |
| 20260506042416 | 68 | 190 | 1.7 | 7.0 | 0.00 | 0.00 | 0.00 | 66 | 1010.7 |
| 20260506041359 | 68 | 190 | 0.9 | 7.8 | 0.00 | 0.00 | 0.00 | 66 | 1010.7 |
| 20260506040336 | 68 | 188 | 1.7 | 7.8 | 0.00 | 0.00 | 0.00 | 65 | 1010.6 |
| 20260506035319 | 68 | 190 | 1.7 | 7.0 | 0.00 | 0.00 | 0.00 | 64 | 1010.6 |
| 20260506034301 | 68 | 192 | 1.7 | 0.0 | 0.00 | 0.00 | 0.00 | 64 | 1010.6 |
| 20260506033245 | 68 | 192 | 0.9 | 0.0 | 0.00 | 0.00 | 0.00 | 64 | 1010.6 |
| 20260506032203 | 68 | 190 | 1.7 | 0.0 | 0.00 | 0.00 | 0.00 | 63 | 1010.6 |
| 20260506031146 | 68 | 190 | 1.7 | 0.0 | 0.00 | 0.00 | 0.00 | 62 | 1010.6 |
| 20260506030129 | 68 | 190 | 1.7 | 6.1 | 0.00 | 0.00 | 0.00 | 62 | 1010.6 |
| 20260506025113 | 69 | 190 | 1.7 | 7.8 | 0.00 | 0.00 | 0.00 | 61 | 1010.6 |
| 20260506024311 | 69 | 190 | 1.7 | 7.8 | 0.00 | 0.00 | 0.00 | 60 | 1010.6 |
| 20260506023033 | 69 | 190 | 1.7 | 7.8 | 0.00 | 0.00 | 0.00 | 60 | 1010.6 |
| 20260506022230 | 70 | 190 | 1.7 | 7.8 | 0.00 | 0.00 | 0.00 | 59 | 1010.6 |
| 20260506020959 | 70 | 188 | 1.7 | 7.8 | 0.00 | 0.00 | 0.00 | 58 | 1010.6 |
| 20260506020129 | 70 | 196 | 1.7 | 8.7 | 0.00 | 0.00 | 0.00 | 58 | 1010.5 |
| 20260506014859 | 71 | 196 | 1.7 | 8.7 | 0.00 | 0.00 | 0.00 | 57 | 1010.4 |
| 20260506013839 | 71 | 196 | 1.7 | 9.6 | 0.00 | 0.00 | 0.00 | 56 | 1010.3 |
| 20260506012822 | 72 | 196 | 1.7 | 9.6 | 0.00 | 0.00 | 0.00 | 54 | 1010.2 |
| 20260506011805 | 72 | 196 | 1.7 | 9.6 | 0.00 | 0.00 | 0.00 | 54 | 1010.1 |
| 20260506010749 | 73 | 196 | 1.7 | 8.7 | 0.00 | 0.00 | 0.00 | 52 | 1010.0 |
| 20260506005732 | 73 | 200 | 2.6 | 9.6 | 0.00 | 0.00 | 0.00 | 50 | 1009.8 |
| 20260506004714 | 74 | 200 | 2.6 | 9.6 | 0.00 | 0.00 | 0.00 | 49 | 1009.7 |
| 20260506003657 | 74 | 200 | 2.6 | 8.7 | 0.00 | 0.00 | 0.00 | 47 | 1009.6 |
| 20260506002640 | 75 | 198 | 1.7 | 9.6 | 0.00 | 0.00 | 0.00 | 45 | 1009.4 |
| 20260506001623 | 75 | 198 | 2.6 | 8.7 | 0.00 | 0.00 | 0.00 | 44 | 1009.4 |
| 20260506000606 | 76 | 200 | 1.7 | 9.6 | 0.00 | 0.00 | 0.00 | 43 | 1009.2 |
| 20260505235549 | 76 | 244 | 2.6 | 7.0 | 0.00 | 0.00 | 0.00 | 42 | 1009.2 |
| 20260505234532 | 77 | 210 | 2.6 | 10.4 | 0.00 | 0.00 | 0.00 | 41 | 1009.1 |
| 20260505233515 | 77 | 210 | 2.6 | 11.3 | 0.00 | 0.00 | 0.00 | 41 | 1009.0 |
| 20260505232457 | 78 | 210 | 2.6 | 11.3 | 0.00 | 0.00 | 0.00 | 40 | 1008.9 |
| 20260505231414 | 79 | 210 | 2.6 | 12.2 | 0.00 | 0.00 | 0.00 | 38 | 1008.7 |
| 20260505230356 | 79 | 210 | 2.6 | 12.2 | 0.00 | 0.00 | 0.00 | 37 | 1008.7 |
| 20260505225337 | 80 | 230 | 2.6 | 12.2 | 0.00 | 0.00 | 0.00 | 36 | 1008.6 |
| 20260505224321 | 80 | 228 | 3.5 | 11.3 | 0.00 | 0.00 | 0.00 | 34 | 1008.5 |
| 20260505223304 | 80 | 226 | 3.5 | 11.3 | 0.00 | 0.00 | 0.00 | 34 | 1008.5 |
| 20260505222245 | 80 | 228 | 3.5 | 11.3 | 0.00 | 0.00 | 0.00 | 33 | 1008.5 |
| 20260505221228 | 81 | 232 | 3.5 | 11.3 | 0.00 | 0.00 | 0.00 | 33 | 1008.3 |
| 20260505220211 | 81 | 270 | 3.5 | 10.4 | 0.00 | 0.00 | 0.00 | 32 | 1008.3 |
| 20260505215155 | 81 | 220 | 4.3 | 13.9 | 0.00 | 0.00 | 0.00 | 31 | 1008.2 |
| 20260505214138 | 82 | 220 | 4.3 | 13.9 | 0.00 | 0.00 | 0.00 | 31 | 1008.2 |
| 20260505213336 | 82 | 220 | 4.3 | 13.9 | 0.00 | 0.00 | 0.00 | 31 | 1008.2 |
| 20260505212102 | 82 | 205 | 5.2 | 13.0 | 0.00 | 0.00 | 0.00 | 30 | 1008.1 |
| 20260505211044 | 83 | 239 | 4.3 | 14.8 | 0.00 | 0.00 | 0.00 | 30 | 1008.0 |
| 20260505210027 | 83 | 240 | 4.3 | 14.8 | 0.00 | 0.00 | 0.00 | 30 | 1007.9 |
| 20260505205222 | 83 | 210 | 4.3 | 15.6 | 0.00 | 0.00 | 0.00 | 32 | 1007.9 |
| 20260505203952 | 82 | 212 | 3.5 | 15.6 | 0.00 | 0.00 | 0.00 | 32 | 1007.9 |
| 20260505203149 | 83 | 212 | 4.3 | 14.8 | 0.00 | 0.00 | 0.00 | 33 | 1008.0 |
| 20260505201919 | 82 | 210 | 4.3 | 14.8 | 0.00 | 0.00 | 0.00 | 32 | 1008.0 |
| 20260505200903 | 82 | 210 | 3.5 | 15.6 | 0.00 | 0.00 | 0.00 | 33 | 1008.1 |
| 20260505195844 | 83 | 220 | 4.3 | 14.8 | 0.00 | 0.00 | 0.00 | 33 | 1008.2 |
| 20260505194826 | 82 | 220 | 4.3 | 14.8 | 0.00 | 0.00 | 0.00 | 33 | 1008.2 |
| 20260505193809 | 82 | 220 | 4.3 | 13.9 | 0.00 | 0.00 | 0.00 | 33 | 1008.3 |
| 20260505193006 | 83 | 220 | 4.3 | 13.0 | 0.00 | 0.00 | 0.00 | 34 | 1008.5 |
| 20260505191734 | 83 | 220 | 4.3 | 13.0 | 0.00 | 0.00 | 0.00 | 34 | 1008.6 |
| 20260505190713 | 83 | 220 | 4.3 | 13.0 | 0.00 | 0.00 | 0.00 | 35 | 1008.7 |
| 20260505185656 | 83 | 193 | 4.3 | 12.2 | 0.00 | 0.00 | 0.00 | 36 | 1008.9 |
| 20260505184640 | 83 | 219 | 4.3 | 13.0 | 0.00 | 0.00 | 0.00 | 36 | 1008.9 |
| 20260505183623 | 83 | 270 | 3.5 | 10.4 | 0.00 | 0.00 | 0.00 | 36 | 1009.2 |